Photometre #859[NE_1.6] Durban_UKZN AOT

File : 20221127_859.hum

27/11/2022,03:34:12,TEMP=18.5,BA=5.44,STAT.A=13.5,ExtBa=12.38
27/11/2022,03:37:19,TEMP=18.7,BA=5.44,STAT.A=13.5,ExtBa=12.34
27/11/2022,03:40:57,TEMP=18.7,BA=5.44,STAT.A=13.5,ExtBa=12.33
27/11/2022,03:45:14,TEMP=18.8,BA=5.44,STAT.A=13.5,ExtBa=12.33
27/11/2022,03:50:23,TEMP=18.8,BA=5.44,STAT.A=13.5,ExtBa=12.33
27/11/2022,03:56:40,TEMP=18.9,BA=5.44,STAT.A=13.5,ExtBa=12.33
27/11/2022,04:04:33,TEMP=18.9,BA=5.44,STAT.B=13.5,ExtBa=12.34
27/11/2022,04:08:18,TEMP=19.0,BA=5.44,STAT.A=13.5,ExtBa=12.32
27/11/2022,04:12:27,TEMP=19.1,BA=5.44,STAT.A=13.5,ExtBa=12.32
27/11/2022,04:17:07,TEMP=19.3,BA=5.44,STAT.A=13.5,ExtBa=12.32
27/11/2022,04:22:23,TEMP=19.6,BA=5.44,STAT.A=13.5,ExtBa=12.32
27/11/2022,04:28:22,TEMP=19.8,BA=5.44,STAT.C=13.5,ExtBa=12.32
27/11/2022,04:35:16,TEMP=19.9,BA=5.44,STAT.A=13.5,ExtBa=12.33
27/11/2022,04:43:16,TEMP=20.0,BA=5.44,STAT.A=14.0,ExtBa=12.33
27/11/2022,04:52:42,TEMP=20.0,BA=5.44,STAT.A=14.0,ExtBa=12.34
27/11/2022,05:04:00,TEMP=20.2,BA=5.48,STAT.A=14.0,ExtBa=12.33
27/11/2022,05:15:22,TEMP=20.6,BA=5.48,STAT.D=14.0,ExtBa=12.33
27/11/2022,05:17:51,TEMP=20.9,BA=5.48,STAT.B=13.5,ExtBa=12.31
27/11/2022,05:30:22,TEMP=20.9,BA=5.48,STAT.D=14.0,ExtBa=12.34
27/11/2022,05:42:22,TEMP=21.0,BA=5.48,STAT.D=14.0,ExtBa=12.33
27/11/2022,05:45:52,TEMP=21.2,BA=5.48,STAT.B=14.0,ExtBa=12.32
27/11/2022,05:57:22,TEMP=21.3,BA=5.48,STAT.D=14.0,ExtBa=12.33
27/11/2022,05:59:17,TEMP=21.6,BA=5.48,STAT.D=13.5,ExtBa=12.29
27/11/2022,06:12:23,TEMP=21.5,BA=5.52,STAT.D=14.0,ExtBa=12.34
27/11/2022,06:14:19,TEMP=21.9,BA=5.52,STAT.D=13.5,ExtBa=12.30
27/11/2022,06:27:23,TEMP=21.9,BA=5.52,STAT.D=14.0,ExtBa=12.41
27/11/2022,06:29:20,TEMP=22.3,BA=5.52,STAT.D=13.5,ExtBa=12.36
27/11/2022,06:42:23,TEMP=22.1,BA=5.52,STAT.D=14.0,ExtBa=12.48
27/11/2022,06:44:21,TEMP=22.5,BA=5.52,STAT.F,ExtBa=12.43
27/11/2022,07:00:52,TEMP=23.1,BA=5.52,STAT.D=14.0,ExtBa=12.71
27/11/2022,07:12:23,TEMP=23.3,BA=5.56,STAT.D=14.0,ExtBa=12.77
27/11/2022,07:14:26,TEMP=23.7,BA=5.56,STAT.D=14.0,ExtBa=12.66
27/11/2022,07:27:23,TEMP=24.1,BA=5.56,STAT.D=14.0,ExtBa=12.79
27/11/2022,07:29:21,TEMP=24.5,BA=5.56,STAT.D=13.5,ExtBa=12.71
27/11/2022,07:42:23,TEMP=23.6,BA=5.56,STAT.D=14.0,ExtBa=12.70
27/11/2022,07:44:23,TEMP=23.9,BA=5.56,STAT.F,ExtBa=12.60
27/11/2022,07:57:24,TEMP=23.6,BA=5.56,STAT.D=14.0,ExtBa=12.71
27/11/2022,07:59:21,TEMP=24.1,BA=5.56,STAT.D=14.0,ExtBa=12.65
27/11/2022,08:12:24,TEMP=23.5,BA=5.56,STAT.D=14.0,ExtBa=12.57
27/11/2022,08:14:24,TEMP=23.8,BA=5.56,STAT.D=14.0,ExtBa=12.51
27/11/2022,08:27:24,TEMP=23.2,BA=5.56,STAT.D=14.0,ExtBa=12.52
27/11/2022,08:29:24,TEMP=23.4,BA=5.56,STAT.D=14.0,ExtBa=12.48
27/11/2022,08:42:24,TEMP=22.3,BA=5.60,STAT.D=14.0,ExtBa=12.48
27/11/2022,08:44:26,TEMP=22.7,BA=5.60,STAT.F,ExtBa=12.42
27/11/2022,08:57:24,TEMP=21.7,BA=5.56,STAT.D=14.0,ExtBa=12.44
27/11/2022,08:59:25,TEMP=22.0,BA=5.56,STAT.D=14.0,ExtBa=12.40
27/11/2022,09:12:24,TEMP=22.1,BA=5.56,STAT.D=14.0,ExtBa=12.41
27/11/2022,09:14:26,TEMP=22.5,BA=5.56,STAT.D=13.5,ExtBa=12.37
27/11/2022,09:27:24,TEMP=22.4,BA=5.56,STAT.D=14.0,ExtBa=12.39
27/11/2022,09:29:26,TEMP=22.8,BA=5.56,STAT.D=13.5,ExtBa=12.35
27/11/2022,09:42:24,TEMP=22.3,BA=5.56,STAT.D=14.0,ExtBa=12.37
27/11/2022,09:44:29,TEMP=22.7,BA=5.56,STAT.F,ExtBa=12.32
27/11/2022,09:57:24,TEMP=22.7,BA=5.56,STAT.D=14.0,ExtBa=12.38
27/11/2022,09:59:26,TEMP=23.1,BA=5.56,STAT.D=13.5,ExtBa=12.32
27/11/2022,10:12:24,TEMP=22.0,BA=5.56,STAT.D=14.0,ExtBa=12.36
27/11/2022,10:14:26,TEMP=22.0,BA=5.56,STAT.D=13.5,ExtBa=12.32
27/11/2022,10:27:24,TEMP=19.8,BA=5.56,STAT.D=14.0,ExtBa=12.35
27/11/2022,10:29:25,TEMP=20.1,BA=5.56,STAT.D=14.0,ExtBa=12.31
27/11/2022,10:42:24,TEMP=19.5,BA=5.56,STAT.D=14.0,ExtBa=12.34
27/11/2022,10:44:25,TEMP=19.8,BA=5.56,STAT.F,ExtBa=12.30
27/11/2022,10:57:24,TEMP=19.9,BA=5.56,STAT.D=14.0,ExtBa=12.34
27/11/2022,10:59:24,TEMP=20.3,BA=5.56,STAT.D=13.5,ExtBa=12.30
27/11/2022,11:12:24,TEMP=19.9,BA=5.56,STAT.D=14.0,ExtBa=12.34
27/11/2022,11:14:23,TEMP=20.2,BA=5.56,STAT.D=13.5,ExtBa=12.30
27/11/2022,11:27:23,TEMP=19.7,BA=5.60,STAT.D=14.0,ExtBa=12.33
27/11/2022,11:29:22,TEMP=20.1,BA=5.60,STAT.D=13.5,ExtBa=12.30
27/11/2022,11:42:23,TEMP=19.8,BA=5.60,STAT.D=14.0,ExtBa=12.34
27/11/2022,11:44:23,TEMP=20.2,BA=5.60,STAT.F,ExtBa=12.30
27/11/2022,11:57:23,TEMP=20.2,BA=5.60,STAT.D=14.0,ExtBa=12.34
27/11/2022,11:59:21,TEMP=20.6,BA=5.60,STAT.D=13.5,ExtBa=12.29
27/11/2022,12:12:23,TEMP=20.7,BA=5.60,STAT.D=14.0,ExtBa=12.38
27/11/2022,12:14:20,TEMP=21.1,BA=5.60,STAT.D=13.5,ExtBa=12.34
27/11/2022,12:27:23,TEMP=21.7,BA=5.60,STAT.D=14.0,ExtBa=12.56
27/11/2022,12:29:20,TEMP=22.4,BA=5.60,STAT.D=13.5,ExtBa=12.49
27/11/2022,12:42:23,TEMP=23.1,BA=5.60,STAT.D=14.0,ExtBa=12.47
27/11/2022,12:44:21,TEMP=23.5,BA=5.60,STAT.F,ExtBa=12.42
27/11/2022,12:57:23,TEMP=23.5,BA=5.60,STAT.D=14.0,ExtBa=12.45
27/11/2022,12:59:20,TEMP=23.9,BA=5.60,STAT.D=13.5,ExtBa=12.39
27/11/2022,13:12:23,TEMP=23.4,BA=5.60,STAT.D=14.0,ExtBa=12.40
27/11/2022,13:14:20,TEMP=23.7,BA=5.60,STAT.D=14.0,ExtBa=12.34
27/11/2022,13:27:22,TEMP=23.1,BA=5.60,STAT.D=14.0,ExtBa=12.36
27/11/2022,13:29:17,TEMP=23.4,BA=5.60,STAT.D=14.0,ExtBa=12.32
27/11/2022,13:42:22,TEMP=22.8,BA=5.60,STAT.D=14.0,ExtBa=12.34
27/11/2022,13:44:19,TEMP=23.2,BA=5.60,STAT.B=14.0,ExtBa=12.31
27/11/2022,13:57:22,TEMP=22.8,BA=5.60,STAT.D=14.0,ExtBa=12.34
27/11/2022,14:09:22,TEMP=22.0,BA=5.60,STAT.D=14.0,ExtBa=12.34
27/11/2022,14:11:19,TEMP=22.2,BA=5.56,STAT.B=14.0,ExtBa=12.31
27/11/2022,14:24:18,TEMP=21.1,BA=5.56,STAT.A=14.0,ExtBa=12.34
27/11/2022,14:35:36,TEMP=21.1,BA=5.60,STAT.A=14.0,ExtBa=12.34
27/11/2022,14:45:02,TEMP=21.4,BA=5.56,STAT.A=14.0,ExtBa=12.33
27/11/2022,15:00:52,TEMP=21.6,BA=5.52,STAT.A=14.0,ExtBa=12.34
27/11/2022,15:02:47,TEMP=22.0,BA=5.52,STAT.C=13.5,ExtBa=12.30
27/11/2022,15:05:55,TEMP=22.0,BA=5.52,STAT.A=14.0,ExtBa=12.31
27/11/2022,15:11:11,TEMP=21.9,BA=5.56,STAT.A=14.0,ExtBa=12.32
27/11/2022,15:15:51,TEMP=21.9,BA=5.56,STAT.A=14.0,ExtBa=12.32
27/11/2022,15:20:00,TEMP=22.0,BA=5.56,STAT.A=14.0,ExtBa=12.32
27/11/2022,15:23:45,TEMP=22.0,BA=5.52,STAT.B=14.0,ExtBa=12.32
27/11/2022,15:31:38,TEMP=21.9,BA=5.56,STAT.A=14.0,ExtBa=12.33
27/11/2022,15:37:55,TEMP=21.9,BA=5.56,STAT.A=14.0,ExtBa=12.33
27/11/2022,15:43:04,TEMP=21.8,BA=5.56,STAT.A=14.0,ExtBa=12.32
27/11/2022,15:47:21,TEMP=21.8,BA=5.56,STAT.A=14.0,ExtBa=12.32
27/11/2022,15:50:59,TEMP=21.7,BA=5.52,STAT.A=14.0,ExtBa=12.31
27/11/2022,15:54:06,TEMP=21.7,BA=5.52,STAT.A=14.0,ExtBa=12.31